Terug naar catalogus

STARLINK-4514

ActiefCommunicatieVLEO
NORAD 53551·PAYLOAD·🇺🇸 United States

Gelanceerd Aug 19, 2022 vanaf Cape Canaveral Space Force Station

Loading…

Volgende Passages (komende 24 uur)

TLE

VersSource: CelesTrak SupGP

Epoch: Sep 14, 2026, 21:06 UTC

1 53551C 22101AA  26257.87965278  .00030681  00000+0  90658-3 0  2574
2 53551  53.1568 283.9754 0001122  93.4089 200.6356 15.34371318    15

Volg STARLINK-4514 in realtime met AllMySat

Download on the App Store